Weather reports worldwide

Advertisment
Zwiesel, Germany (10796): temperature & dewpoint: 23.10.2020 11:00:00 - 29.10.2020 11:00:00 (CET)Zwiesel, Germany (10796): temperature 5cm & temperature -5cm: 23.10.2020 11:00:00 - 29.10.2020 11:00:00 (CET)Zwiesel, Germany (10796): temperature -20cm & temperature -100cm: 23.10.2020 11:00:00 - 29.10.2020 11:00:00 (CET)Zwiesel, Germany (10796): wind speed & gusts: 23.10.2020 11:00:00 - 29.10.2020 11:00:00 (CET)Zwiesel, Germany (10796): wind direction: 23.10.2020 11:00:00 - 29.10.2020 11:00:00 (CET)Zwiesel, Germany (10796): reduced air pressure: 23.10.2020 11:00:00 - 29.10.2020 11:00:00 (CET)Zwiesel, Germany (10796): visibility: 23.10.2020 11:00:00 - 29.10.2020 11:00:00 (CET)Zwiesel, Germany (10796): sunshine duration: 23.10.2020 11:00:00 - 29.10.2020 11:00:00 (CET)Zwiesel, Germany (10796): precipitation: 23.10.2020 11:00:00 - 29.10.2020 11:00:00 (CET)
Date & Time tt [°C] td [°C] tt 5cm [°C] tt -5cm [°C] tt -20cm [°C] tt -100cm [°C] ff [km/h] ff [kn] fx [km/h] fx [kn] dd ppp [hPa] vv [km] sd [min] rr [mm]
29.10.2020 11:00:00 7,4 5,6 7,0 7,8 7,3 11,1 21 11 40 21 W 1018,6 11 0 0,9
29.10.2020 10:00:00 8,0 6,7 7,5 7,4 7,2 11,1 11 6 25 14 SSW 1017,8 22 0 3,9
29.10.2020 09:00:00 8,0 7,1 7,6 7,2 7,2 11,2 8 4 29 16 SSW 1017,5 8 0 2,2
29.10.2020 08:00:00 8,2 7,0 7,6 6,8 7,2 11,2 8 4 21 11 SW 1016,9 7 0 2,2
29.10.2020 07:00:00 8,2 7,3 7,5 6,5 7,1 11,2 10 6 21 12 SW 1016,5 20 0 2,7
29.10.2020 06:00:00 7,6 6,8 7,1 6,2 7,1 11,2 6 3 16 9 S 1016,3 19 0 1,4
29.10.2020 05:00:00 7,6 6,5 6,9 5,9 7,1 11,2 6 4 16 8 S 1016,6 35 0 0,1
29.10.2020 04:00:00 6,9 6,2 6,3 5,6 7,1 11,2 3 1 12 6 S 1017,1 34 0 0,1
29.10.2020 03:00:00 5,6 5,3 5,2 5,3 7,2 11,2 3 1 6 4 SE 1017,9 6 0 0,6
29.10.2020 02:00:00 5,1 5,0 5,1 5,1 7,2 11,2 3 2 6 4 ENE 1018,8 4,3 0 0,2
29.10.2020 01:00:00 5,3 5,1 4,7 5,0 7,3 11,2 2 1 7 4 NNE 1018,4 6 0 0,0
29.10.2020 00:00:00 5,1 4,9 4,3 4,9 7,4 11,2 3 1 5 3 ENE 1018,4 5 0 0,0
28.10.2020 23:00:00 4,1 4,1 2,8 4,8 7,4 11,2 3 1 5 3 SSE 1019,1 0,4 0 0,0
28.10.2020 22:00:00 5,5 5,3 3,0 5,4 7,4 11,2 3 1 9 5 NE 1018,6 0,2 0 0,0
28.10.2020 21:00:00 6,4 6,0 5,3 6,3 7,4 11,2 4 2 6 3 ENE 1018,4 6 0 0,0
28.10.2020 20:00:00 6,3 6,0 5,6 6,4 7,3 11,2 3 1 6 4 SSE 1018,4 7 0 0,0
28.10.2020 19:00:00 6,6 6,2 6,0 6,8 7,3 11,2 2 1 5 3 SSE 1018,0 9 0 0,0
28.10.2020 18:00:00 6,7 6,3 6,4 7,1 7,2 11,2 2 1 6 3 N 1017,7 7 0 0,0
28.10.2020 17:00:00 7,0 6,2 6,8 7,4 7,1 11,3 4 2 10 5 NW 1017,4 24 0 0,0
28.10.2020 16:00:00 7,1 6,3 7,5 7,3 6,9 11,3 4 2 9 5 E 1017,4 38 1 0,1
28.10.2020 15:00:00 6,9 6,0 6,9 7,2 6,8 11,3 4 2 12 7 ESE 1017,4 50 0 0,3
28.10.2020 14:00:00 6,7 6,0 7,0 7,1 6,6 11,3 3 1 8 5 ENE 1017,3 1,6 0 0,2
28.10.2020 13:00:00 6,8 5,8 6,9 6,9 6,5 11,3 6 3 13 7 SE 1017,3 31 0 0,0
28.10.2020 12:00:00 6,3 4,0 6,3 6,4 6,4 11,3 3 2 6 3 SSW 1017,6 47 0 0,0
28.10.2020 11:00:00 4,8 3,8 5,5 5,1 6,4 11,3 2 1 6 3 SE 1017,7 34 0 0,0
28.10.2020 10:00:00 2,7 2,1 3,5 3,7 6,4 11,3 0 0 6 3 N 1017,9 28 0 0,0
28.10.2020 09:00:00 1,3 0,9 2,6 2,2 6,6 11,3 3 1 5 3 N 1017,9 20 0 0,0
28.10.2020 08:00:00 -0,2 -0,7 0,0 1,7 6,7 11,3 2 1 6 4 SW 1018,1 22 10 0,0
28.10.2020 07:00:00 -1,5 -2,1 -1,9 1,6 6,9 11,3 3 1 6 3 ESE 1017,9 14 0 0,0
28.10.2020 06:00:00 -1,7 -2,3 -2,5 1,7 7,0 11,3 0 0 4 2 N 1017,9 14 0 0,0
28.10.2020 05:00:00 -1,7 -2,1 -2,9 1,8 7,2 11,3 2 1 5 3 ESE 1017,9 1,1 0 0,0
28.10.2020 04:00:00 -1,2 -1,6 -1,1 1,9 7,4 11,3 0 0 5 3 N 1017,8 0,2 0 0,0
28.10.2020 03:00:00 -0,9 -1,2 -1,3 2,2 7,6 11,3 3 1 5 3 N 1017,9 0,2 0 0,0
28.10.2020 02:00:00 -0,6 -1,0 -1,0 2,5 7,8 11,3 0 0 5 3 N 1018,0 0,1 0 0,0
28.10.2020 01:00:00 -0,2 -0,4 -1,0 2,9 8,0 11,3 2 1 7 4 W 1017,6 0,2 0 0,0
28.10.2020 00:00:00 1,4 1,1 -0,8 3,2 8,1 11,3 0 0 4 2 N 1017,2 0,2 0 0,0
27.10.2020 23:00:00 2,1 1,7 0,0 4,0 8,3 11,3 4 2 8 4 NNW 1017,1 6 0 0,0
27.10.2020 22:00:00 3,3 2,8 2,4 4,9 8,4 11,3 3 2 9 5 NW 1017,0 16 0 0,0
27.10.2020 21:00:00 3,9 3,0 2,8 5,4 8,5 11,3 5 3 8 5 E 1016,8 28 0 0,0
27.10.2020 20:00:00 3,6 3,1 3,6 5,4 8,6 11,3 2 1 4 2 ENE 1016,7 19 0 0,0
27.10.2020 19:00:00 3,8 3,2 1,9 6,1 8,6 11,3 3 1 16 9 N 1016,5 18 0 0,0
27.10.2020 18:00:00 5,5 3,8 5,2 7,3 8,6 11,3 6 3 10 5 ESE 1015,7 54 0 0,0
27.10.2020 17:00:00 5,8 3,9 5,5 7,7 8,6 11,3 5 3 14 8 SE 1015,1 46 0 0,0
27.10.2020 16:00:00 5,8 3,7 5,8 8,2 8,5 11,3 8 4 18 10 SE 1015,0 54 0 0,0
27.10.2020 15:00:00 6,0 3,7 6,0 8,6 8,4 11,3 10 5 18 10 S 1014,9 49 0 0,0
27.10.2020 14:00:00 6,1 3,9 6,3 8,3 8,4 11,3 8 5 17 9 S 1014,6 50 0 0,0
27.10.2020 13:00:00 5,7 4,0 5,6 8,0 8,3 11,3 9 5 15 8 S 1014,3 50 0 0,0
27.10.2020 12:00:00 5,4 4,2 6,1 7,9 8,3 11,3 7 4 13 7 SE 1014,4 46 0 0,0
27.10.2020 11:00:00 5,7 4,0 6,0 7,4 8,3 11,3 3 2 7 4 SSE 1014,2 48 0 0,0
27.10.2020 10:00:00 5,3 4,0 5,3 7,0 8,3 11,3 4 2 8 4 S 1014,4 24 0 0,1
27.10.2020 09:00:00 4,9 3,9 5,0 6,4 8,4 11,4 3 2 8 5 SSW 1013,8 30 0 0,0
27.10.2020 08:00:00 4,5 3,1 4,6 6,0 8,5 11,4 4 2 10 5 SSE 1013,6 54 0 0,0
27.10.2020 07:00:00 4,3 3,7 4,3 6,0 8,6 11,4 4 2 7 4 ESE 1013,0 12 0 0,7
27.10.2020 06:00:00 4,3 3,6 4,2 6,0 8,6 11,4 3 2 6 3 SE 1012,8 12 0 0,5
27.10.2020 05:00:00 4,4 3,6 4,3 6,2 8,7 11,4 4 2 9 5 SSW 1012,3 14 0 0,7
27.10.2020 04:00:00 4,6 3,8 4,5 6,3 8,8 11,4 8 4 17 9 SW 1011,9 16 0 0,9
27.10.2020 03:00:00 4,8 3,9 4,7 6,5 8,9 11,4 9 5 16 9 WSW 1011,9 14 0 0,4
27.10.2020 02:00:00 4,9 4,0 4,9 6,7 9,0 11,4 8 4 13 7 SW 1011,6 24 0 0,2
27.10.2020 01:00:00 5,1 4,4 5,0 6,9 9,0 11,4 9 5 17 9 SW 1011,3 8 0 0,7
27.10.2020 00:00:00 5,6 5,1 5,6 7,1 9,1 11,4 3 2 13 7 SSW 1010,9 4,4 0 1,2
26.10.2020 23:00:00 5,7 5,1 5,6 7,2 9,2 11,4 5 3 18 10 S 1010,5 4,9 0 0,9
26.10.2020 22:00:00 5,9 4,7 5,7 7,4 9,2 11,4 11 6 19 10 W 1010,1 9 0 1,0
26.10.2020 21:00:00 6,4 5,2 6,1 7,7 9,3 11,4 12 6 22 12 WSW 1009,5 6 0 0,2
26.10.2020 20:00:00 6,6 5,2 6,2 8,0 9,3 11,4 9 5 22 12 W 1008,8 61 0 0,0
26.10.2020 19:00:00 7,2 5,3 6,7 8,2 9,3 11,4 8 5 21 11 SW 1008,6 54 0 0,0
26.10.2020 18:00:00 7,2 5,0 6,6 8,7 9,2 11,4 13 7 24 13 W 1007,5 75 0 0,0
26.10.2020 17:00:00 7,9 7,0 7,6 9,4 9,1 11,4 9 5 23 12 WSW 1007,0 7 0 0,0
26.10.2020 16:00:00 8,4 7,5 8,4 9,9 9,0 11,4 10 6 14 8 WSW 1006,4 11 0 0,1
26.10.2020 15:00:00 8,5 7,5 8,7 10,3 8,8 11,4 5 3 11 6 SSW 1005,9 7 0 0,0
26.10.2020 14:00:00 8,7 6,9 8,8 10,4 8,6 11,4 9 5 18 10 WSW 1005,5 14 0 0,0
26.10.2020 13:00:00 8,9 6,5 10,1 10,9 8,3 11,4 10 5 24 13 WSW 1004,4 31 0 0,0
26.10.2020 12:00:00 10,4 6,8 11,4 11,4 8,0 11,4 13 7 23 12 SW 1003,9 57 47 0,0
26.10.2020 11:00:00 10,1 6,6 12,1 9,7 7,9 11,4 9 5 16 9 SSW 1003,3 57 60 0,0
26.10.2020 10:00:00 8,5 5,2 9,0 7,1 8,0 11,4 4 2 9 5 SE 1003,9 60 58 0,0
26.10.2020 09:00:00 4,9 3,5 5,4 4,0 8,1 11,4 3 1 16 9 SW 1004,7 56 27 0,0
26.10.2020 08:00:00 3,1 2,2 2,8 3,0 8,3 11,4 4 2 9 5 S 1004,6 48 32 0,0
26.10.2020 07:00:00 0,7 0,3 -0,7 2,4 8,5 11,4 2 1 11 6 NE 1006,7 27 0 0,0
26.10.2020 06:00:00 0,9 0,5 -0,7 2,7 8,8 11,3 6 3 9 5 NE 1006,9 33 0 0,0
26.10.2020 05:00:00 0,7 0,4 -0,1 2,8 9,0 11,3 2 1 6 3 N 1007,1 31 0 0,0
26.10.2020 04:00:00 1,1 0,7 -0,6 2,9 9,3 11,3 0 0 8 5 N 1007,6 34 0 0,0
26.10.2020 03:00:00 1,8 1,4 -0,4 3,3 9,6 11,3 3 1 8 4 SSW 1007,8 38 0 0,0
26.10.2020 02:00:00 2,1 1,9 -0,6 3,8 9,8 11,3 1 1 5 3 E 1008,9 32 0 0,0
26.10.2020 01:00:00 2,6 2,0 -0,1 4,4 10,1 11,3 3 2 10 5 WNW 1009,4 19 0 0,0
26.10.2020 00:00:00 3,0 2,5 0,7 5,1 10,4 11,3 3 2 8 5 N 1009,8 20 0 0,0
25.10.2020 23:00:00 4,6 4,0 2,0 5,8 10,6 11,3 6 3 10 5 E 1010,1 44 0 0,0
25.10.2020 22:00:00 5,3 4,6 3,5 6,4 10,9 11,3 5 3 9 5 E 1010,1 49 0 0,0
25.10.2020 21:00:00 5,5 4,8 3,2 7,3 11,1 11,3 3 2 8 4 ENE 1010,1 36 0 0,0
25.10.2020 20:00:00 6,5 5,7 3,5 8,3 11,2 11,3 5 3 10 5 NE 1009,9 39 0 0,0
25.10.2020 19:00:00 7,3 6,4 3,7 9,6 11,3 11,3 0 0 6 4 N 1010,0 37 0 0,0
25.10.2020 18:00:00 8,8 7,0 5,0 11,2 11,2 11,3 4 2 7 4 N 1009,8 44 0 0,0
25.10.2020 17:00:00 11,6 7,4 8,4 13,4 11,0 11,3 4 2 14 7 N 1008,8 56 44 0,0
25.10.2020 16:00:00 14,8 6,7 14,7 15,1 10,7 11,3 7 4 14 8 SSE 1008,3 66 59 0,0
25.10.2020 15:00:00 15,3 7,2 16,5 15,7 10,3 11,3 9 5 19 10 SW 1008,5 66 60 0,0
25.10.2020 14:00:00 15,2 7,4 16,7 16,0 9,9 11,3 9 5 19 10 WSW 1008,8 58 60 0,0
25.10.2020 13:00:00 15,7 6,6 17,5 15,2 9,5 11,3 10 5 20 11 S 1009,4 75 60 0,0
25.10.2020 12:00:00 13,4 8,5 15,8 13,6 9,3 11,3 8 4 15 8 WSW 1011,1 70 60 0,0
25.10.2020 11:00:00 10,2 7,1 13,1 11,4 9,2 11,3 4 2 7 4 W 1012,7 48 60 0,0
25.10.2020 10:00:00 7,0 6,2 8,8 9,0 9,3 11,3 2 1 6 3 WNW 1014,1 0,8 24 0,0
25.10.2020 09:00:00 5,3 5,0 6,6 7,1 9,4 11,3 3 1 6 3 SW 1015,4 0,2 10 0,0
25.10.2020 08:00:00 3,8 3,6 4,2 6,3 9,5 11,3 4 2 7 4 SE 1016,0 0,7 0 0,0
25.10.2020 07:00:00 3,5 3,3 3,7 6,3 9,6 11,3 5 3 8 4 ESE 1016,3 0,9 0 0,0
25.10.2020 06:00:00 4,1 3,9 4,4 6,3 9,8 11,3 2 1 4 2 E 1016,5 0,2 0 0,0
25.10.2020 05:00:00 4,4 4,1 4,5 6,3 9,9 11,3 0 0 6 3 N 1016,4 0,1 0 0,0
25.10.2020 04:00:00 5,1 4,7 2,7 6,7 10,0 11,3 2 1 5 3 SE 1016,5 2,5 0 0,0
25.10.2020 03:00:00 6,0 5,7 6,2 7,4 10,2 11,3 0 0 8 4 N 1016,8 7 0 0,0
25.10.2020 02:00:00 6,1 5,9 6,2 7,2 10,3 11,3 3 2 8 4 NNE 1017,4 7 0 0,0
25.10.2020 01:00:00 - - - - - - - - - - - - - - -
25.10.2020 00:00:00 5,4 5,0 5,3 7,1 10,8 11,3 3 2 6 3 ESE 1018,5 2,4 0 0,0
24.10.2020 23:00:00 5,6 5,3 5,4 7,3 11,0 11,3 2 1 6 4 ESE 1019,2 11 0 0,0
24.10.2020 22:00:00 5,9 5,7 5,0 7,3 11,2 11,3 3 1 5 3 NE 1019,5 2,0 0 0,0
24.10.2020 21:00:00 6,9 6,6 3,5 8,0 11,4 11,3 3 2 6 3 ENE 1019,3 0,7 0 0,0
24.10.2020 20:00:00 7,2 6,7 3,8 9,0 11,6 11,3 2 1 8 4 N 1019,2 6 0 0,0
24.10.2020 19:00:00 8,2 7,7 5,2 10,1 11,6 11,3 2 1 9 5 NE 1019,0 12 0 0,0
24.10.2020 18:00:00 9,4 8,1 6,8 11,7 11,6 11,3 5 3 10 6 SE 1018,5 24 0 0,0
24.10.2020 17:00:00 12,2 8,7 10,7 13,2 11,5 11,3 6 3 12 7 SW 1017,4 43 54 0,0
24.10.2020 16:00:00 13,3 9,1 13,4 14,0 11,4 11,3 4 2 12 6 SW 1017,0 44 25 0,0
24.10.2020 15:00:00 13,1 8,3 12,6 14,6 11,2 11,3 4 2 10 5 S 1017,5 48 17 0,0
24.10.2020 14:00:00 12,2 9,3 11,8 14,1 11,0 11,3 7 4 18 10 WSW 1018,0 48 9 0,0
24.10.2020 13:00:00 13,6 9,3 14,5 14,3 10,9 11,3 10 5 19 10 SW 1017,7 54 13 0,0
24.10.2020 12:00:00 12,5 9,0 12,5 13,1 10,8 11,3 8 4 21 11 WSW 1018,2 56 6 0,0
24.10.2020 11:00:00 12,9 10,0 13,5 12,6 10,7 11,3 8 5 17 9 SW 1018,0 35 20 0,0
24.10.2020 10:00:00 12,0 10,2 11,8 12,1 10,7 11,3 9 5 14 8 WSW 1017,8 30 6 0,0
24.10.2020 09:00:00 11,6 10,9 11,5 11,1 10,7 11,3 2 1 8 4 SSE 1017,5 11 0 0,0
24.10.2020 08:00:00 11,2 10,6 11,0 10,7 10,8 11,3 2 1 5 3 S 1017,2 6 0 0,0
24.10.2020 07:00:00 10,9 10,4 10,3 10,7 10,8 11,3 3 1 10 6 SE 1016,6 8 0 0,0
24.10.2020 06:00:00 11,1 10,4 10,6 10,8 10,8 11,3 4 2 10 5 SSW 1016,2 14 0 0,0
24.10.2020 05:00:00 11,4 10,7 10,8 11,0 10,8 11,3 6 3 12 6 SW 1015,8 20 0 0,3
24.10.2020 04:00:00 11,6 10,7 11,0 11,1 10,8 11,3 6 3 16 8 SW 1015,4 14 0 1,2
24.10.2020 03:00:00 11,7 11,1 11,3 11,3 10,8 11,3 5 3 13 7 SW 1015,1 6 0 0,3
24.10.2020 02:00:00 12,1 11,2 11,5 11,3 10,8 11,3 5 3 11 6 S 1014,9 15 0 0,1
24.10.2020 01:00:00 12,3 11,3 11,6 11,4 10,8 11,3 6 3 13 7 SW 1014,7 12 0 0,0
24.10.2020 00:00:00 12,3 11,3 11,7 11,4 10,9 11,3 4 2 13 7 SSW 1014,8 8 0 0,0
23.10.2020 23:00:00 11,6 11,0 11,3 11,4 10,9 11,3 2 1 10 5 W 1014,9 8 0 0,1
23.10.2020 22:00:00 11,5 11,0 11,2 11,5 10,9 11,3 4 2 5 3 SE 1014,9 7 0 0,6
23.10.2020 21:00:00 11,5 10,9 11,1 11,6 10,9 11,3 2 1 6 3 SSE 1014,7 4,1 0 0,3
23.10.2020 20:00:00 11,4 10,9 10,8 11,8 10,9 11,3 2 1 5 3 NNE 1014,3 13 0 0,0
23.10.2020 19:00:00 11,9 10,9 10,9 12,2 10,9 11,3 0 0 6 3 N 1014,1 15 0 0,2
23.10.2020 18:00:00 12,5 11,0 10,3 12,9 10,7 11,3 0 0 4 2 N 1013,9 28 0 0,0
23.10.2020 17:00:00 13,2 10,9 12,0 13,9 10,5 11,3 3 1 4 2 N 1013,7 23 0 0,0
23.10.2020 16:00:00 14,8 10,5 14,1 14,6 10,2 11,3 2 1 10 5 W 1013,4 40 0 0,0
23.10.2020 15:00:00 15,4 10,2 15,7 15,2 9,9 11,3 5 3 11 6 S 1013,6 34 10 0,0
23.10.2020 14:00:00 15,2 10,3 15,4 15,8 9,5 11,3 6 4 17 9 SSW 1014,0 40 22 0,0
23.10.2020 13:00:00 14,8 10,1 15,6 15,2 9,2 11,3 3 2 11 6 W 1014,5 35 28 0,0
23.10.2020 12:00:00 13,7 9,8 15,7 13,3 9,1 11,3 4 2 9 5 W 1015,4 27 52 0,0
23.10.2020 11:00:00 11,2 9,1 11,8 10,8 9,0 11,3 2 1 7 4 W 1016,8 18 0 0,0

tt = temperature
td = dewpoint
tt 5cm = temperature 5cm
tt -5cm = temperature -5cm
tt -20cm = temperature -20cm
tt -100cm = temperature -100cm
ff = wind speed
fx = gusts
dd = wind direction
ppp = reduced air pressure
vv = visibility
sd = sunshine duration
rr = precipitation

Next stations